Theta_e
294 296 296 295 295 296 294 296 291 295 295 300 302 302 304 308 307 306 306 307 307 308 310 312 313 314 313 313 313 314 314 314 315 317 317 321 320 320 321 319 319 319 319 322
291 294 295 293 295 296 295 296 296 295 295 302 304 304 304 305 305 305 305 306 308 309 310 311 311 313 314 313 313 315 314 313 313 314 315 315 319 319 320 319 318 318 318 321
286 293 293 290 294 295 296 297 296 292 297 301 301 303 304 304 304 304 305 306 306 308 310 312 312 313 312 313 313 312 312 312 312 312 312 313 313 318 318 318 316 314 316 317
287 291 282 294 301 299 297 297 299 299 300 301 303 304 304 304 303 304 305 306 307 307 309 310 311 312 313 311 310 310 309 308 309 310 310 311 312 312 316 318 316 315 315 316
286 286 291 294 297 297 294 295 301 300 300 301 302 302 301 305 306 306 306 306 307 308 309 310 310 311 310 309 308 308 307 307 306 307 305 305 307 312 313 316 316 315 314 313
289 284 282 294 299 302 300 289 301 301 300 299 300 293 297 305 305 304 306 306 306 306 308 308 310 310 309 307 306 305 305 305 306 305 305 304 304 305 310 311 314 315 315 316
286 285 290 299 301 302 288 292 302 302 301 300 297 299 303 304 304 305 305 306 306 307 307 308 309 309 306 305 304 305 305 305 305 305 304 305 304 303 304 308 309 311 312 314
290 286 284 301 300 293 298 302 302 301 300 299 300 300 301 302 303 304 304 304 304 305 305 306 307 306 304 304 306 305 304 302 303 303 302 302 303 302 303 304 304 305 308 311
290 292 301 303 302 303 303 301 301 301 301 301 300 299 300 301 302 303 303 303 305 303 303 304 304 303 301 302 303 302 301 301 302 301 300 301 300 300 301 301 300 301 301 303
294 298 299 300 304 303 303 302 303 303 302 301 299 299 299 301 301 301 303 301 302 300 299 298 299 299 298 298 299 299 298 298 299 298 299 299 299 299 299 299 299 300 301 301
295 298 300 300 301 301 302 303 302 302 300 300 299 299 299 299 300 299 299 299 298 296 295 295 296 296 296 296 296 295 296 296 297 297 297 297 298 299 298 300 300 299 300 301
292 299 299 298 301 302 301 300 299 299 299 299 299 299 298 296 298 298 295 295 294 293 292 292 293 294 295 296 295 295 294 294 294 295 296 296 296 297 296 295 295 293 294 297
298 300 300 300 301 301 298 299 300 299 299 299 297 296 296 296 295 294 292 292 290 289 290 290 291 291 293 295 295 295 294 294 294 294 295 294 294 295 294 296 294 293 292 291
301 300 297 298 296 299 299 299 300 300 298 296 296 297 295 292 291 290 289 289 289 288 288 287 288 289 291 292 292 292 293 293 293 293 292 291 291 291 292 291 291 292 294 293
299 298 297 298 299 298 299 299 297 295 295 295 296 293 290 288 288 287 287 287 286 286 286 286 286 287 290 290 290 290 290 290 291 291 291 290 290 290 291 291 290 290 292 293
297 297 298 296 296 296 297 297 294 293 294 294 291 288 288 287 286 285 285 285 283 282 284 285 285 287 289 288 287 288 288 289 288 289 289 289 289 289 289 290 290 290 290 292
294 294 295 294 295 295 296 294 293 294 293 290 287 287 286 284 284 283 283 284 283 283 284 285 285 286 286 287 286 286 287 288 287 288 288 289 289 289 289 289 290 291 291 293
298 297 297 297 295 295 293 294 294 293 290 289 287 285 283 282 281 281 282 283 283 284 283 284 284 285 287 288 290 290 289 289 290 290 291 291 291 292 292 292 292 292 293 294
298 297 298 297 296 294 294 295 294 292 290 288 285 283 283 282 282 281 281 281 281 279 281 283 285 286 287 289 291 293 292 292 293 294 297 295 297 299 302 300 297 298 297 296
298 298 297 296 296 295 295 296 294 292 290 287 285 283 282 281 281 281 281 280 280 280 282 283 285 286 287 291 292 300 299 298 298 297 297 298 297 297 298 295 298 301 299 296
297 297 295 295 294 295 297 296 293 292 290 287 284 283 281 282 282 281 279 277 280 281 282 284 284 285 288 289 293 295 296 296 295 295 295 294 294 294 294 295 295 297 300 300
297 296 295 294 294 295 296 296 294 293 291 287 285 284 283 281 281 280 281 278 280 281 282 282 284 284 286 288 291 291 292 292 292 292 292 292 292 291 291 292 292 294 295 299
297 296 296 295 294 295 296 295 294 294 291 286 285 284 283 282 281 278 276 280 280 280 281 281 282 283 285 288 288 288 288 288 289 289 289 289 289 289 288 289 289 290 292 293
296 296 296 297 296 294 293 295 295 294 294 291 286 285 284 282 282 282 281 280 280 280 280 280 281 283 284 285 285 285 285 285 286 287 287 286 287 287 287 287 287 288 289 291
297 297 297 296 294 294 295 295 295 293 293 293 291 287 286 285 283 282 281 280 280 279 279 280 280 282 282 283 283 283 283 284 284 285 285 285 285 285 285 285 285 286 287 287
297 297 298 298 296 296 295 295 293 294 292 291 292 292 289 287 285 284 283 281 280 279 279 279 279 280 280 281 281 281 282 282 283 284 284 284 283 283 283 283 284 284 284 285
297 294 297 297 297 297 296 295 294 293 292 292 291 293 292 290 287 285 284 283 281 280 279 279 279 279 279 280 280 280 280 281 282 283 283 283 283 282 282 282 283 283 283 283
Wind_Speed
19 23 23 25 19 19 19 15 12 14 17 14 12 12 18 18 15 13 10 8 7 9 11 10 8 7 9 10 9 11 9 10 10 10 12 9 9 11 12 10 7 9 8 15
18 17 21 23 22 20 21 21 23 22 23 17 14 11 6 4 7 9 7 10 13 15 13 8 7 7 8 8 9 11 11 12 11 12 13 13 10 8 9 10 9 10 7 5
10 15 15 15 17 19 18 20 15 17 16 10 5 3 5 8 11 13 12 11 14 10 10 9 9 6 7 9 9 11 11 14 15 14 15 14 14 9 9 10 11 12 9 5
6 10 9 6 8 7 6 6 6 7 9 6 7 3 8 8 13 13 11 12 13 13 13 13 13 10 8 10 11 13 13 14 15 15 15 16 13 14 9 10 11 12 12 12
4 7 14 14 4 4 5 7 8 7 9 11 13 12 10 9 12 12 13 13 12 13 14 15 15 13 12 10 11 12 13 15 15 15 15 14 20 12 10 10 11 11 13 14
3 4 4 4 7 6 8 7 9 10 7 8 13 11 10 17 16 16 16 13 13 15 16 17 15 11 10 12 12 15 14 14 13 13 15 16 15 14 14 7 11 10 12 13
9 7 8 3 3 2 7 4 8 10 11 12 11 11 15 16 17 16 16 16 17 17 17 16 14 12 12 11 13 13 14 14 15 15 14 16 13 11 13 13 11 13 13 11
6 5 7 10 5 3 2 4 8 9 11 14 15 17 17 18 17 17 17 19 21 19 16 15 12 11 13 14 13 12 13 15 17 14 12 12 16 12 12 11 11 11 12 13
3 4 0 4 11 1 4 7 8 10 12 13 16 18 20 17 18 17 19 19 18 16 15 14 15 15 17 17 16 16 16 14 14 15 13 13 13 14 11 13 11 11 10 10
8 2 2 2 12 8 14 14 15 14 15 17 18 20 21 18 17 17 17 16 17 19 19 19 18 19 18 17 17 18 15 15 13 15 15 14 12 13 12 13 13 14 13 12
13 6 5 8 8 13 11 11 14 17 17 18 19 19 20 18 17 17 17 18 18 20 20 20 19 17 16 15 15 15 15 15 15 12 14 14 13 12 12 14 12 12 13 12
5 7 6 12 15 14 15 15 16 16 18 18 19 19 20 17 17 18 19 21 20 19 20 20 19 18 17 16 16 16 14 12 11 10 10 9 10 10 16 20 16 14 17 13
6 11 10 10 13 16 15 16 17 17 17 19 19 18 20 18 19 24 20 18 19 19 19 19 19 19 17 15 15 15 14 13 10 10 9 10 10 11 11 9 11 12 14 15
8 8 10 12 13 15 17 18 17 17 17 18 18 17 16 18 19 19 17 16 18 18 18 18 18 18 16 16 16 16 14 17 11 9 10 9 10 11 10 11 11 11 16 18
10 11 12 13 13 16 15 15 16 16 17 17 16 16 16 18 17 17 18 17 17 18 16 17 17 18 15 15 15 14 11 10 10 9 9 12 11 11 11 12 12 12 10 13
12 12 11 13 14 13 15 17 17 18 17 14 12 12 15 16 16 16 15 15 16 15 17 17 17 16 15 15 14 12 11 19 16 10 10 11 10 11 11 12 12 10 10 11
11 12 12 11 12 15 15 15 15 15 14 11 11 14 16 16 15 15 15 14 14 15 15 15 16 17 17 16 14 10 9 9 12 10 10 10 10 11 10 10 10 10 11 11
9 11 10 12 11 13 15 16 14 12 9 11 13 14 14 14 15 15 15 15 14 13 14 15 17 18 18 15 11 8 8 8 8 8 8 9 10 10 10 9 10 10 9 8
10 10 12 11 13 13 11 10 12 13 11 12 15 14 13 12 13 15 14 15 13 16 16 19 26 21 15 18 17 5 6 7 8 7 7 6 5 7 3 3 6 7 8 8
11 11 12 13 14 11 13 14 14 13 11 15 14 13 14 14 13 14 14 12 12 12 19 18 18 15 16 17 18 7 6 6 8 7 7 6 6 7 7 7 8 3 3 5
11 11 12 12 13 14 13 13 13 12 9 15 13 14 13 12 13 14 12 11 17 18 19 21 15 13 11 13 11 9 9 9 8 8 8 8 8 8 8 8 9 8 5 5
10 9 10 12 11 10 13 13 13 11 8 11 14 13 13 13 13 12 10 12 12 20 14 11 12 19 13 14 10 10 11 11 10 9 9 9 9 8 9 9 9 8 8 6
8 9 10 12 12 12 12 11 13 14 9 8 13 16 13 10 9 11 12 17 12 16 11 12 19 21 16 11 10 11 12 13 12 11 10 10 9 9 9 9 8 8 9 8
7 8 10 10 11 12 12 11 10 14 11 7 5 10 12 11 9 9 9 13 18 16 13 15 17 19 17 11 11 12 12 12 11 11 10 13 9 10 10 10 10 9 9 9
7 7 9 10 11 9 9 11 10 12 13 10 6 7 8 10 9 10 10 11 17 15 12 18 21 19 13 12 13 13 12 12 12 11 11 11 11 11 11 10 11 10 9 9
7 6 6 9 8 8 9 9 9 9 11 9 10 8 8 9 10 10 10 15 14 15 12 12 14 13 13 13 13 14 12 13 13 12 13 12 12 11 11 11 11 11 11 10
7 9 8 8 8 8 8 8 9 10 10 10 10 10 10 10 13 13 14 12 13 13 12 12 13 15 13 13 13 14 13 12 16 13 13 12 12 12 12 12 12 11 11 12
Wind_Direction
272 273 273 278 267 250 248 252 248 269 272 267 269 193 234 234 237 257 284 309 315 294 288 281 252 244 260 272 282 287 290 292 290 295 292 254 259 270 282 295 306 306 353 318
281 269 259 261 263 266 265 259 259 268 272 289 283 280 312 309 279 270 275 269 272 259 254 295 300 257 260 272 282 290 291 282 279 292 284 285 259 240 258 277 284 294 316 359
269 264 266 258 253 255 259 255 254 263 277 274 247 60 276 285 285 289 291 288 292 307 337 322 311 321 301 299 316 296 279 274 281 275 275 273 278 245 233 248 262 271 276 268
273 290 257 285 317 261 286 301 319 277 312 104 270 231 248 298 284 285 323 341 333 321 312 299 288 280 298 300 296 299 304 305 306 300 286 279 272 282 236 220 232 248 260 268
261 275 289 280 200 35 36 313 23 32 35 340 333 322 290 27 5 338 323 315 313 313 309 308 304 291 277 274 278 275 274 279 279 293 299 312 314 259 271 241 215 230 242 255
293 281 284 89 66 1 324 259 31 360 351 321 327 307 304 352 336 323 316 313 314 305 297 285 284 299 286 271 264 266 271 275 284 287 289 290 287 323 304 278 287 241 236 237
237 243 260 122 289 307 243 30 340 318 326 328 318 316 320 317 313 314 308 312 313 300 284 281 278 276 283 289 281 272 276 281 275 268 277 281 281 279 285 303 279 276 269 249
225 237 247 359 307 336 11 308 302 326 331 322 316 310 308 309 312 309 313 312 305 293 300 306 314 326 306 298 303 298 282 280 276 275 267 269 272 273 273 269 276 291 284 266
266 310 224 306 300 305 300 287 334 329 329 319 315 313 313 307 309 317 312 295 292 311 331 329 327 315 302 300 298 288 276 264 271 274 265 255 257 267 264 250 256 261 254 267
230 158 272 198 277 354 341 357 354 344 340 331 318 314 312 319 314 298 299 322 341 334 322 313 306 302 298 298 296 285 274 268 261 258 256 251 255 250 247 255 254 252 247 248
291 332 309 89 340 352 335 332 338 335 328 325 318 314 314 302 313 325 334 335 329 316 305 301 300 299 295 291 287 286 283 278 265 261 259 254 248 248 247 246 244 248 251 250
325 359 335 332 352 336 341 339 331 340 334 320 312 313 330 327 333 339 329 316 309 308 302 301 301 301 293 286 278 276 271 271 267 266 266 267 268 261 243 243 243 236 243 248
349 11 349 330 328 335 333 340 354 331 313 321 338 333 336 341 330 321 308 308 306 304 302 302 303 300 301 304 301 291 278 271 268 264 266 261 254 254 256 251 253 245 242 243
30 352 326 324 335 341 357 350 326 324 338 337 333 353 346 328 313 310 313 312 310 307 306 303 300 296 304 306 300 294 291 288 277 268 257 256 252 251 256 257 257 253 236 232
344 342 341 348 350 359 344 313 335 339 340 338 357 347 331 318 317 319 318 316 310 306 304 305 300 297 300 295 290 288 280 276 269 262 255 252 254 254 249 247 241 244 243 233
349 345 358 2 348 338 336 339 345 347 337 360 345 333 324 324 321 316 311 315 317 315 309 307 302 302 304 299 290 281 277 265 260 262 261 257 251 248 245 245 245 237 231 234
347 351 355 330 349 347 339 360 350 341 1 351 339 331 330 326 316 318 319 317 312 308 308 311 310 308 302 294 284 274 270 268 257 256 256 257 256 255 249 244 242 235 232 223
2 353 355 8 342 349 360 353 343 21 3 343 336 335 330 327 324 323 324 321 320 324 322 320 314 312 308 302 290 269 259 264 265 261 263 261 253 254 249 243 241 237 231 213
12 6 15 353 7 17 342 350 26 23 357 349 342 334 330 332 330 328 328 327 335 331 332 327 323 325 319 317 318 269 260 267 271 273 272 277 261 277 316 230 241 239 224 197
27 19 8 11 18 8 1 17 28 13 4 347 339 344 342 344 340 337 333 338 341 330 328 325 333 331 332 331 333 356 5 8 14 11 6 10 6 5 10 9 358 33 86 124
31 21 20 18 25 14 17 27 27 18 10 355 348 349 345 340 349 345 345 346 342 338 336 342 344 343 341 342 357 12 13 14 16 16 18 15 10 12 15 15 12 12 38 96
38 24 22 31 37 19 31 27 21 26 7 1 358 354 357 359 358 356 360 352 336 342 343 348 351 350 349 356 11 15 19 21 20 18 21 18 17 19 19 19 22 17 22 34
45 26 24 29 32 29 29 30 24 12 33 9 5 3 4 360 356 358 358 350 349 347 354 357 356 358 2 16 17 20 22 20 20 23 19 18 20 21 21 19 20 20 24 30
60 41 28 26 32 29 26 22 35 19 18 42 26 360 5 4 11 10 355 348 354 1 2 2 4 8 18 19 23 24 24 22 21 20 19 18 23 25 23 22 22 21 23 27
51 54 41 25 26 25 26 21 19 30 11 18 49 28 21 15 10 1 4 5 6 8 9 8 12 17 21 23 23 25 24 20 21 22 22 20 22 26 24 22 26 21 25 27
11 30 45 50 35 21 22 26 17 31 15 18 16 39 30 26 12 12 15 16 16 12 14 13 16 18 22 24 25 25 23 23 21 25 26 26 27 26 27 25 26 28 27 25
82 17 40 24 42 19 27 36 33 23 33 17 21 19 36 31 21 20 18 19 21 19 21 22 19 21 22 25 27 26 24 24 25 25 27 28 29 28 26 27 29 31 33 33